CAPE
831 842 439 196 159 156 180 59 0 0 0 0 0 0 0 0 0 0 0 0 0 0 0 0 0 0 0 0 0 0 0 0 0 0 0 0 0 0 0 0 0 0
877 813 512 302 170 157 190 86 14 1 1 0 0 0 0 0 0 0 0 0 0 0 0 0 0 0 0 0 0 0 0 0 0 0 0 0 0 0 0 0 0 0
1063 1088 902 604 414 448 371 200 47 7 21 14 6 0 0 5 0 0 0 0 0 0 0 0 0 0 0 0 0 0 0 0 0 0 0 0 0 0 0 0 0 0
1246 1188 1147 890 820 910 662 390 78 71 180 58 13 7 25 16 15 15 6 0 0 1 6 17 0 0 0 0 0 0 0 0 0 0 0 0 0 0 0 0 0 0
1277 1252 1040 684 359 353 299 424 392 245 150 77 37 24 35 58 29 25 9 15 18 18 59 20 22 26 33 5 0 0 0 1 1 0 0 0 0 0 0 0 0 0
1276 1130 941 1022 391 137 21 30 44 39 38 104 61 36 41 45 36 33 55 54 42 72 76 74 82 115 58 65 88 98 21 0 1 0 0 0 0 0 0 0 0 0
1249 910 1015 1108 859 282 122 87 0 0 14 107 44 48 66 53 54 82 98 112 145 100 168 214 212 185 142 173 115 167 137 51 56 8 2 0 0 0 0 0 0 0
1088 998 1223 1211 1277 630 74 70 17 0 36 276 58 55 72 79 62 117 165 200 145 213 258 257 293 308 380 336 282 262 252 209 154 78 203 30 87 2 0 0 0 0
1109 1210 1452 1378 1315 823 159 18 86 44 50 201 242 213 94 88 86 177 134 216 246 300 318 371 408 433 542 527 492 491 383 426 376 291 201 274 157 106 132 13 0 0
1543 1499 1483 1339 1545 936 598 130 276 249 177 200 142 341 314 206 204 163 178 254 321 353 332 416 502 599 611 647 521 630 602 430 487 439 426 335 425 299 168 172 342 210
1514 1524 1463 1268 1358 972 841 453 203 238 326 157 39 49 62 190 260 229 252 242 336 308 328 356 472 518 670 619 842 611 698 664 510 458 698 658 652 520 457 548 554 513
1511 1702 1799 1576 1212 1119 897 522 342 354 414 215 140 130 201 186 272 171 242 269 463 506 538 383 310 311 353 390 667 760 693 778 596 726 693 701 675 817 602 521 797 414
1473 1690 1686 1609 1644 1462 1232 914 578 498 288 205 253 230 243 253 224 419 529 568 628 680 689 640 615 520 604 774 716 496 716 691 850 632 859 724 776 672 554 709 690 703
1120 1254 1597 1495 1325 883 841 562 705 913 619 216 328 386 481 650 377 570 798 718 875 697 582 562 649 715 771 824 750 711 725 843 837 975 844 879 1019 828 620 699 699 774
1114 744 984 699 710 701 723 887 1027 874 706 738 509 434 958 566 648 622 843 1002 865 733 626 745 908 760 819 742 1106 821 858 991 1020 687 546 413 272 63 540 810 938 841
1054 863 788 612 595 674 735 931 940 1016 624 399 548 624 456 370 312 209 385 536 547 677 786 1117 743 405 761 748 556 520 497 578 553 949 767 631 78 344 574 877 906 826
1018 827 746 620 564 284 448 554 631 861 593 371 340 342 515 413 249 491 753 347 89 24 380 585 652 684 625 289 6 104 786 816 605 558 714 604 352 503 558 684 928 810
807 742 786 713 524 387 497 716 663 392 436 334 354 466 471 548 491 411 581 738 451 393 360 436 510 369 0 0 0 0 230 897 476 387 336 133 274 212 332 468 726 431
1038 693 718 962 957 594 627 469 520 513 428 402 380 512 457 354 314 483 633 524 611 538 373 379 0 0 0 0 0 0 0 339 101 69 9 139 89 52 74 39 8 18
1218 1101 1102 1113 992 1053 775 609 293 468 608 681 486 585 444 517 744 958 854 414 391 359 7 0 0 0 0 0 0 0 0 202 67 1 19 22 22 22 20 21 21 7
368 335 564 623 848 822 816 877 616 682 494 412 597 444 647 809 744 577 767 403 54 54 0 0 0 0 0 0 0 0 0 38 95 9 2 10 27 261 88 121 78 138
10 20 80 178 275 371 420 477 602 432 533 620 472 585 288 121 192 95 90 58 11 0 0 0 0 0 0 0 0 0 0 16 107 2 12 26 60 95 72 153 280 213
4 9 3 20 2 14 64 175 219 159 203 185 224 128 92 44 61 27 8 6 1 0 0 0 0 0 0 0 0 0 0 654 0 5 25 19 57 85 140 19 0 4
0 1 2 8 9 16 15 8 13 9 11 3 16 8 10 4 4 0 0 0 0 2 0 0 0 0 0 0 0 0 0 252 30 0 0 2 0 5 10 0 0 0
0 0 3 0 2 10 28 4 0 0 0 0 0 0 0 1 0 0 0 0 0 2 0 6 0 2 0 0 0 0 0 145 75 0 1 0 6 0 0 0 0 0
1 1 0 0 0 0 6 0 0 0 62 6 20 0 0 0 0 0 0 0 0 6 2 3 7 0 0 0 0 0 0 0 3 0 6 4 0 2 4 0 0 0
Wind_Speed
26 24 29 30 28 26 25 nan nan nan nan nan nan nan nan nan nan nan nan nan nan nan nan nan nan nan nan nan nan nan nan nan nan nan nan nan nan nan nan nan nan nan
26 25 27 31 30 26 25 nan nan nan nan nan nan nan nan nan nan nan nan nan nan nan nan nan nan nan nan nan nan nan nan nan nan nan nan nan nan nan nan nan nan nan
25 25 29 30 27 25 24 23 nan nan nan nan nan nan nan nan nan nan nan nan nan nan nan nan nan nan nan nan nan nan nan nan nan nan nan nan nan nan nan nan nan nan
26 27 30 29 26 25 25 23 nan nan 20 nan nan nan nan nan nan nan nan nan nan nan nan nan nan nan nan nan nan nan nan nan nan nan nan nan nan nan nan nan nan nan
27 28 28 27 25 25 24 23 23 22 20 nan nan nan nan nan nan nan nan nan nan nan nan nan nan nan nan nan nan nan nan nan nan nan nan nan nan nan nan nan nan nan
26 24 22 23 24 23 nan nan nan nan nan 18 nan nan nan nan nan nan nan nan nan nan nan nan nan 25 nan nan nan nan nan nan nan nan nan nan nan nan nan nan nan nan
21 17 17 21 22 22 22 nan nan nan nan 20 nan nan nan nan nan nan nan 22 23 23 23 24 25 25 24 23 23 22 24 nan nan nan nan nan nan nan nan nan nan nan
17 16 18 20 21 22 nan nan nan nan nan 21 nan nan nan nan nan 23 22 21 22 21 22 24 24 26 25 24 25 23 22 21 21 nan 20 nan nan nan nan nan nan nan
19 19 20 21 22 23 22 nan nan nan nan 22 22 23 nan nan nan 25 23 21 20 20 20 23 23 26 25 25 26 24 21 19 18 18 19 19 18 18 18 nan nan nan
20 20 20 22 23 22 22 23 24 24 23 23 22 24 23 23 25 24 24 22 20 20 20 20 23 25 25 25 25 24 21 20 17 19 20 20 20 21 21 22 21 21
18 19 19 22 22 20 21 23 24 25 25 23 nan nan nan 24 24 23 24 22 21 19 20 21 22 24 24 25 25 23 21 21 20 21 21 21 22 21 23 20 22 21
20 21 21 21 21 20 23 25 27 25 25 23 23 23 23 24 23 23 23 21 21 19 18 21 19 26 21 21 22 23 22 22 22 22 22 21 24 22 23 23 22 23
19 20 20 22 24 31 33 29 23 22 23 23 24 22 24 22 22 21 22 19 20 20 19 18 20 22 18 23 23 24 23 23 22 22 23 23 23 25 24 29 25 25
16 19 21 23 27 31 31 22 18 21 19 21 25 23 25 25 23 21 23 20 20 20 20 20 19 22 22 23 22 21 24 24 24 23 22 23 23 26 27 27 26 25
18 20 22 21 26 28 27 24 22 22 19 21 23 24 29 28 21 20 21 23 22 22 22 26 24 28 30 27 23 23 22 24 22 24 21 25 30 nan 26 29 28 27
23 24 22 20 26 26 27 24 23 27 32 31 28 29 30 26 23 25 26 28 29 22 27 30 35 33 30 30 31 28 24 21 26 23 24 30 nan 28 30 28 29 28
29 26 27 27 30 26 24 21 23 32 33 32 29 28 25 26 29 32 31 30 nan nan 24 29 36 34 33 35 nan 32 30 28 32 28 30 31 37 32 32 34 32 32
34 33 33 33 33 34 32 29 35 34 31 30 32 33 34 33 31 30 28 31 33 32 38 38 37 38 nan nan nan nan 34 32 36 37 37 37 40 40 40 36 38 37
35 35 36 35 37 37 35 33 33 36 36 37 35 37 35 33 29 28 29 32 35 41 40 43 nan nan nan nan nan nan nan 36 39 nan nan 43 nan nan nan nan nan nan
39 39 39 40 39 39 39 39 40 40 41 41 41 40 37 38 42 42 43 41 39 44 nan nan nan nan nan nan nan nan nan 38 nan nan nan nan nan nan nan nan nan nan
42 43 43 44 43 43 44 44 46 45 46 45 45 46 48 50 49 49 47 46 nan nan nan nan nan nan nan nan nan nan nan nan nan nan nan nan nan 50 nan 49 nan 47
nan nan nan 46 47 47 49 49 51 50 50 49 50 51 51 52 53 nan nan nan nan nan nan nan nan nan nan nan nan nan nan nan 46 nan nan nan nan nan nan 52 50 48
nan nan nan nan nan nan nan 48 50 50 51 50 49 48 nan nan nan nan nan nan nan nan nan nan nan nan nan nan nan nan nan 46 nan nan nan nan nan nan 52 nan nan nan
nan nan nan nan nan nan nan nan nan nan nan nan nan nan nan nan nan nan nan nan nan nan nan nan nan nan nan nan nan nan nan 46 nan nan nan nan nan nan nan nan nan nan
nan nan nan nan nan nan nan nan nan nan nan nan nan nan nan nan nan nan nan nan nan nan nan nan nan nan nan nan nan nan nan 47 nan nan nan nan nan nan nan nan nan nan
nan nan nan nan nan nan nan nan nan nan nan nan nan nan nan nan nan nan nan nan nan nan nan nan nan nan nan nan nan nan nan nan nan nan nan nan nan nan nan nan nan nan
Wind_Direction
274 270 263 260 267 275 272 nan nan nan nan nan nan nan nan nan nan nan nan nan nan nan nan nan nan nan nan nan nan nan nan nan nan nan nan nan nan nan nan nan nan nan
274 277 268 259 261 270 269 nan nan nan nan nan nan nan nan nan nan nan nan nan nan nan nan nan nan nan nan nan nan nan nan nan nan nan nan nan nan nan nan nan nan nan
271 278 271 256 253 264 267 263 nan nan nan nan nan nan nan nan nan nan nan nan nan nan nan nan nan nan nan nan nan nan nan nan nan nan nan nan nan nan nan nan nan nan
268 274 267 249 247 264 264 260 nan nan 263 nan nan nan nan nan nan nan nan nan nan nan nan nan nan nan nan nan nan nan nan nan nan nan nan nan nan nan nan nan nan nan
262 268 263 248 248 260 258 259 265 262 262 nan nan nan nan nan nan nan nan nan nan nan nan nan nan nan nan nan nan nan nan nan nan nan nan nan nan nan nan nan nan nan
256 258 254 245 248 255 nan nan nan nan nan 264 nan nan nan nan nan nan nan nan nan nan nan nan nan 283 nan nan nan nan nan nan nan nan nan nan nan nan nan nan nan nan
247 240 238 241 250 254 255 nan nan nan nan 262 nan nan nan nan nan nan nan 285 282 282 282 281 281 281 281 282 279 276 270 nan nan nan nan nan nan nan nan nan nan nan
244 236 241 243 249 251 nan nan nan nan nan 259 nan nan nan nan nan 278 279 281 281 282 280 280 279 279 279 279 277 274 272 268 268 nan 257 nan nan nan nan nan nan nan
250 249 247 248 248 247 247 nan nan nan nan 260 262 265 nan nan nan 276 276 276 276 275 275 273 275 273 274 276 277 275 272 267 265 267 270 271 267 266 273 nan nan nan
253 246 246 243 248 244 251 252 254 255 257 259 262 262 268 269 274 278 278 276 273 273 271 271 271 271 272 275 277 276 268 266 267 275 282 280 276 276 274 276 278 275
252 242 243 249 246 247 256 257 255 256 256 262 nan nan nan 271 273 276 277 276 274 276 274 268 266 266 269 268 272 269 267 266 273 281 284 284 283 282 275 279 277 277
248 242 239 246 249 252 257 251 251 256 261 262 268 272 273 274 276 276 276 279 276 273 273 269 264 255 254 270 268 266 263 265 268 276 280 283 283 283 285 283 275 280
244 246 243 246 246 239 233 233 248 261 267 267 268 271 276 275 274 278 276 277 278 274 272 271 269 276 276 266 263 266 267 267 271 274 280 279 280 281 281 282 286 280
235 243 255 255 250 253 258 254 239 241 256 273 270 270 271 270 270 272 276 276 273 277 275 277 274 268 268 268 262 258 262 268 272 274 274 275 275 275 271 268 266 267
269 271 252 258 259 263 265 267 262 262 257 243 254 258 252 252 246 257 269 272 272 273 274 275 276 264 251 246 251 257 264 269 263 272 278 279 274 nan 268 269 265 265
270 269 276 273 264 256 247 253 265 261 255 254 241 241 248 254 255 249 247 251 249 254 263 261 257 253 252 249 254 261 258 263 272 267 266 267 nan 264 262 269 270 268
274 275 274 273 277 278 272 269 271 264 262 265 270 266 264 260 254 255 258 262 nan nan 264 256 254 257 253 255 nan 252 263 268 269 266 267 265 272 265 269 268 270 271
268 270 269 272 275 274 273 271 268 268 269 267 268 271 268 264 262 259 254 260 266 267 257 259 261 259 nan nan nan nan 256 259 266 268 265 264 269 275 274 272 270 271
265 266 267 266 266 271 273 272 271 270 271 271 268 266 267 265 265 264 264 267 266 265 267 267 nan nan nan nan nan nan nan 256 264 nan nan 265 nan nan nan nan nan nan
264 264 264 264 264 264 269 271 273 275 271 270 274 276 274 274 272 269 270 269 273 276 nan nan nan nan nan nan nan nan nan 261 nan nan nan nan nan nan nan nan nan nan
267 266 266 266 266 267 266 266 266 265 273 272 271 271 271 271 272 274 273 275 nan nan nan nan nan nan nan nan nan nan nan nan nan nan nan nan nan 269 nan 269 nan 270
nan nan nan 267 268 268 267 266 267 269 268 267 267 267 269 272 272 nan nan nan nan nan nan nan nan nan nan nan nan nan nan nan 273 nan nan nan nan nan nan 269 268 269
nan nan nan nan nan nan nan 266 267 266 265 266 266 267 nan nan nan nan nan nan nan nan nan nan nan nan nan nan nan nan nan 273 nan nan nan nan nan nan 270 nan nan nan
nan nan nan nan nan nan nan nan nan nan nan nan nan nan nan nan nan nan nan nan nan nan nan nan nan nan nan nan nan nan nan 269 nan nan nan nan nan nan nan nan nan nan
nan nan nan nan nan nan nan nan nan nan nan nan nan nan nan nan nan nan nan nan nan nan nan nan nan nan nan nan nan nan nan 266 nan nan nan nan nan nan nan nan nan nan
nan nan nan nan nan nan nan nan nan nan nan nan nan nan nan nan nan nan nan nan nan nan nan nan nan nan nan nan nan nan nan nan nan nan nan nan nan nan nan nan nan nan